[[{"header":{"parameterUnit":"m.s-1","parameterCategory":1,"la1":30.2991,"la2":30.254,"lo1":-89.0895,"lo2":-89.0444,"dy":0.0017,"dx":0.0017,"nx":28,"ny":28,"refTime":"2025-04-11T09:00:00:Z","depth":0,"parameterNumber":2,"parameterNumberName":"U-component_of_WINDS"},"data":[0,0,0,0,0,0,0,0,0,0,0,0,0,0,0,0,0,0,0,0,0,0,0,0,0,0,0,0,0,0,0,0,0,0,0,0,0,0,0,0,0,0,0,0,0,0,0,0,0,0,0,0,0,0,0,0,0,0,6.3982,6.3983,0,6.4109,6.4111,6.4112,6.3986,6.3981,6.3976,6.3971,6.4104,6.4112,6.412,0,0,0,0,0,0,0,0,0,0,0,0,0,6.3632,6.3639,6.3982,6.3984,6.3985,6.4109,6.4111,6.4113,6.3987,6.3981,6.3975,6.3969,6.4102,6.4111,6.4121,0,0,0,0,0,0,0,0,0,0,0,0,0,6.3774,6.3641,6.3982,6.3937,6.3935,6.4109,6.4111,6.4113,6.3988,6.3981,6.3973,6.3966,6.4098,6.411,6.4122,6.4348,0,0,6.416,6.4165,0,0,0,0,0,0,0,0,6.3766,6.3787,6.3942,6.3941,6.3938,6.4024,6.4036,6.4192,6.399,6.3968,6.3971,6.3963,6.4084,6.4097,6.4137,6.4354,6.4359,6.4161,6.4168,6.4174,6.4177,0,0,0,0,0,0,0,6.3756,6.3781,6.4032,6.3945,6.3942,6.3912,6.3924,6.4065,6.4066,6.3969,6.396,6.3977,6.4081,6.4126,6.4139,6.4361,6.4161,6.4172,6.4179,6.4184,6.4768,6.4776,0,0,0,0,0,0,6.3751,6.3773,6.4028,6.4036,6.3832,6.3924,6.3937,6.4004,6.4064,6.4066,6.3983,6.3971,6.4108,6.4125,6.4144,6.4411,6.4174,6.4185,6.4192,6.476,6.477,6.4779,0,0,0,0,0,0,6.3744,6.3775,6.4023,6.3903,6.3932,6.3938,6.4014,6.4011,6.4055,6.4075,6.4075,6.4029,6.4103,6.4126,6.4297,6.4413,6.4191,6.4202,6.4751,6.4763,6.4775,6.4947,0,0,0,0,0,0,6.3735,6.3773,6.3859,6.3905,6.3939,6.4175,6.4021,6.4018,6.4076,6.4061,6.4117,6.4119,6.4099,6.428,6.431,6.4426,6.4211,6.474,6.4756,6.4771,6.4931,6.4963,6.4991,0,0,0,0,0,6.3722,6.3903,6.3863,6.3895,6.4045,6.4182,6.4201,6.4173,6.4086,6.4172,6.4185,6.4118,6.4396,6.4298,6.4331,6.4453,6.4733,6.4752,6.477,6.4917,6.4957,6.4991,0,0,0,0,0,0,6.387,6.3908,6.3865,6.4065,6.4121,6.416,6.4268,6.4216,6.4299,6.4281,6.4244,6.4258,6.4439,6.4463,6.4354,6.4674,6.455,6.4576,6.4651,6.4689,6.4719,6.471,6.4222,0,0,0,0,0,6.3926,6.4033,6.406,6.4235,6.4265,6.4262,6.4321,6.4294,6.4351,6.4374,6.4399,6.4458,6.4558,6.4625,6.4718,6.4934,6.4944,6.5034,6.5064,6.5089,6.5111,6.5226,6.5266,6.4839,6.4839,6.4839,0,0,6.4043,6.4076,6.4147,6.4265,6.4306,6.4418,6.4283,6.4407,6.449,6.4393,6.4556,6.4577,6.4639,6.4833,6.492,6.4859,6.5232,6.5112,6.5132,6.5141,6.5249,6.529,6.5326,6.4852,6.485,6.4848,0,0,6.4312,6.4349,6.4498,6.4541,6.4603,6.4599,6.4635,6.4682,6.4692,6.4855,6.4784,6.4883,6.5056,6.5103,6.515,6.5438,6.5379,6.5469,6.5628,6.574,6.5774,6.5803,6.5906,6.5943,6.5492,6.5492,6.5493,0,6.445,6.4615,6.4581,6.4711,6.4765,6.4681,6.4832,6.4875,6.4966,6.5006,6.4935,6.5151,6.5187,6.5391,6.5461,6.5502,6.5542,6.5463,6.5772,6.5801,6.5828,6.5925,6.5964,6.5503,6.5502,6.5501,6.55,0,6.4781,6.4897,6.501,6.5098,6.5165,6.5305,6.5292,6.5364,6.5332,6.5337,6.5503,6.5544,6.5644,6.569,6.5661,6.589,6.585,6.5777,6.5652,6.588,6.597,6.6007,6.5518,6.5514,6.5511,6.5508,0,0,6.5148,6.5214,6.5256,6.5295,6.5357,6.5447,6.5583,6.568,6.5742,6.5807,6.592,6.6069,6.6001,6.6055,6.603,6.6129,6.6353,6.6043,6.6044,6.6099,6.6608,6.6662,6.6706,6.6315,6.6322,6.6327,6.6603,0,6.5419,6.5654,6.5627,6.5852,6.5958,6.588,6.5998,6.605,6.6058,6.615,6.6158,6.6264,6.6167,6.6198,6.6293,6.6306,6.6455,6.6286,6.642,6.6425,6.6406,6.6753,6.6812,6.707,6.6638,6.6644,6.6648,0,6.5767,6.5843,6.6078,6.6123,6.6167,6.6274,6.636,6.6449,6.6506,6.6504,6.6564,6.6521,6.6658,6.6531,6.6719,6.6604,6.6657,6.6672,6.6681,6.6693,6.655,6.6774,6.7151,6.719,6.6704,6.6699,6.6695,0,6.601,6.6172,6.6333,6.6369,6.6426,6.6503,6.653,6.6579,6.6639,6.6715,6.6753,6.6845,6.6895,6.6966,6.695,6.6858,6.7142,6.7013,6.7144,6.7145,6.7207,6.7204,6.7599,6.7243,6.7242,6.7242,6.7241,0,6.6316,6.6463,6.6443,6.6543,6.6705,6.6673,6.6834,6.6852,6.6897,6.6998,6.6936,6.7033,6.7005,6.7101,6.7089,6.7246,6.7269,6.7272,6.7267,6.7278,6.7277,6.7312,6.7293,6.7252,6.725,6.7248,6.7246,0,6.6615,6.6608,6.6779,6.6819,6.6832,6.695,6.6984,6.7078,6.708,6.7209,6.7238,6.7242,6.7351,6.7342,6.7465,6.7457,6.7651,6.7625,6.7632,6.7626,6.7758,6.7746,6.8189,6.8245,6.7853,6.7857,6.786,0,6.6811,6.6922,6.6973,6.7036,6.7069,6.7172,6.7232,6.7204,6.727,6.7342,6.7428,6.7531,6.7612,6.7791,6.7805,6.7899,6.7874,6.8023,6.7888,6.7895,6.7876,6.787,6.788,6.805,6.8054,6.8058,6.8061,0,6.7158,6.7149,6.7238,6.7327,6.74,6.7468,6.753,6.7586,6.7564,6.7641,6.7752,6.7815,6.794,6.8044,6.8132,6.8161,6.8108,6.8103,6.8138,6.815,6.8149,6.8151,6.7704,6.8093,6.809,6.8087,6.8086,6.8084,6.7411,6.7506,6.7557,6.7658,6.7701,6.7761,6.785,6.7863,6.7955,6.8054,6.8032,6.8157,6.821,6.8324,6.8361,6.8458,6.8405,6.8456,6.8469,6.8482,6.8497,6.8134,6.8475,6.8474,6.8473,6.8472,6.8471,0,6.7755,6.7784,6.7877,6.7965,6.8045,6.7987,6.8052,6.8123,6.8233,6.8287,6.8368,6.8495,6.8595,6.8617,6.8712,6.8786,6.8764,6.8812,6.8806,6.8813,6.854,6.8499,6.8828,6.8828,6.8828,6.8828,6.8828,6.8828,6.7944,6.81,6.8097,6.8275,6.8302,6.8423,6.8466,6.852,6.8562,6.8707,6.8789,6.8802,6.8844,6.8941,6.9031,6.9034,6.9072,6.913,6.9125,6.8869,6.8833,6.8799,6.8761,6.9139,6.9139,6.939,6.9392,6.9394]},{"header":{"parameterUnit":"m.s-1","parameterCategory":1,"la1":30.2991,"la2":30.254,"lo1":-89.0895,"lo2":-89.0444,"dy":0.0017,"dx":0.0017,"nx":28,"ny":28,"refTime":"2025-04-11T09:00:00:Z","depth":0,"parameterNumber":3,"parameterNumberName":"V-component_of_WINDS"},"data":[0,0,0,0,0,0,0,0,0,0,0,0,0,0,0,0,0,0,0,0,0,0,0,0,0,0,0,0,0,0,0,0,0,0,0,0,0,0,0,0,0,0,0,0,0,0,0,0,0,0,0,0,0,0,0,0,0,0,0.9632,0.9632,0,0.9647,0.9648,0.9648,0.9618,0.9617,0.9616,0.9616,0.9632,0.9633,0.9634,0,0,0,0,0,0,0,0,0,0,0,0,0,0.9576,0.9577,0.9632,0.9632,0.9632,0.9647,0.9648,0.9648,0.9619,0.9617,0.9616,0.9615,0.9631,0.9633,0.9634,0,0,0,0,0,0,0,0,0,0,0,0,0,0.9597,0.9577,0.9632,0.9619,0.9618,0.9647,0.9648,0.9648,0.9619,0.9617,0.9616,0.9615,0.9631,0.9633,0.9635,0.9676,0,0,0.9641,0.9642,0,0,0,0,0,0,0,0,0.9595,0.9599,0.9621,0.962,0.9619,0.9629,0.9634,0.9657,0.9619,0.9619,0.9616,0.9614,0.9632,0.9634,0.964,0.9677,0.9678,0.9641,0.9642,0.9643,0.9644,0,0,0,0,0,0,0,0.9594,0.9598,0.9638,0.9621,0.962,0.9613,0.9614,0.9638,0.9633,0.9619,0.9616,0.9619,0.9631,0.9638,0.964,0.9678,0.9641,0.9643,0.9644,0.9645,0.9748,0.975,0,0,0,0,0,0,0.9594,0.9597,0.9637,0.9638,0.9603,0.9615,0.9616,0.9628,0.9633,0.9632,0.962,0.9617,0.9635,0.9638,0.9641,0.9689,0.9643,0.9645,0.9646,0.9747,0.9749,0.975,0,0,0,0,0,0,0.9593,0.9598,0.9637,0.9617,0.9621,0.9617,0.963,0.9629,0.9635,0.9634,0.9633,0.9628,0.9634,0.9638,0.9667,0.9689,0.9646,0.9648,0.9745,0.9747,0.975,0.9785,0,0,0,0,0,0,0.9592,0.9598,0.9614,0.9618,0.9622,0.9663,0.9632,0.963,0.9639,0.9636,0.9641,0.9641,0.9634,0.9664,0.9669,0.9691,0.9649,0.9743,0.9746,0.9749,0.9782,0.9789,0.9794,0,0,0,0,0,0.959,0.9624,0.9615,0.962,0.9642,0.9665,0.9667,0.9658,0.9641,0.9657,0.9656,0.9641,0.9686,0.9668,0.9673,0.9695,0.9742,0.9745,0.9749,0.978,0.9787,0.9794,0,0,0,0,0,0,0.9623,0.9624,0.9614,0.965,0.9658,0.966,0.9679,0.9667,0.968,0.9676,0.9664,0.9666,0.9697,0.9699,0.9679,0.9735,0.9711,0.9715,0.9733,0.974,0.9746,0.9744,0.9651,0,0,0,0,0,0.9634,0.9652,0.9652,0.9684,0.9688,0.9683,0.9693,0.9685,0.9692,0.9695,0.9696,0.9704,0.9719,0.973,0.9744,0.9783,0.9783,0.9801,0.9807,0.9811,0.9815,0.9834,0.9842,0.9762,0.9762,0.9762,0,0,0.9658,0.9661,0.9673,0.9691,0.9696,0.9714,0.9686,0.9707,0.9721,0.9698,0.9726,0.9727,0.9734,0.9768,0.9783,0.9771,0.9838,0.9816,0.982,0.9821,0.9839,0.9846,0.9853,0.9764,0.9764,0.9763,0,0,0.9711,0.9715,0.9742,0.9747,0.9754,0.975,0.9757,0.9761,0.976,0.9788,0.9771,0.9787,0.9815,0.982,0.9827,0.9881,0.9867,0.9886,0.9917,0.9935,0.9942,0.9947,0.9965,0.9972,0.989,0.989,0.989,0,0.9739,0.9767,0.9757,0.9779,0.9786,0.9767,0.9793,0.9799,0.9811,0.9816,0.9803,0.9836,0.984,0.9874,0.9887,0.9893,0.99,0.9885,0.9942,0.9947,0.9952,0.9969,0.9976,0.9892,0.9892,0.9892,0.9892,0,0.9801,0.982,0.9841,0.9852,0.9862,0.9886,0.988,0.9891,0.9883,0.988,0.9908,0.9912,0.9926,0.9934,0.9926,0.9967,0.9959,0.9944,0.9918,0.9962,0.9978,0.9984,0.9895,0.9895,0.9894,0.9894,0,0,0.9874,0.988,0.9887,0.9892,0.9898,0.9913,0.9936,0.9949,0.9959,0.9968,0.9986,1.001,0.9995,1.0003,0.9995,1.0012,1.0053,0.9995,0.9995,1.0004,1.0096,1.0107,1.0115,1.0044,1.0046,1.0047,1.0095,0,0.9926,0.9965,0.9956,0.9994,1.0011,0.9993,1.0013,1.0019,1.0017,1.0031,1.0029,1.0046,1.0026,1.003,1.0046,1.0045,1.0071,1.0041,1.006,1.0061,1.0058,1.0123,1.0134,1.018,1.0102,1.0103,1.0103,0,0.9991,1.0001,1.0041,1.0044,1.005,1.0068,1.008,1.0094,1.01,1.0097,1.0105,1.0095,1.0117,1.0092,1.0122,1.0102,1.0109,1.011,1.0111,1.0111,1.0084,1.0124,1.0195,1.0201,1.0113,1.0112,1.0112,0,1.0038,1.0063,1.0089,1.0094,1.0098,1.0111,1.0114,1.0118,1.0127,1.0137,1.0142,1.0155,1.0161,1.0171,1.0164,1.0147,1.0195,1.017,1.0192,1.0192,1.0202,1.0201,1.0274,1.0209,1.0209,1.0209,1.0209,0,1.0096,1.012,1.0111,1.0127,1.0154,1.0144,1.0171,1.0171,1.0175,1.0191,1.0176,1.0191,1.0181,1.0195,1.019,1.0215,1.0218,1.0216,1.0214,1.0217,1.0217,1.0221,1.0217,1.0211,1.021,1.021,1.021,0,1.0153,1.0148,1.0176,1.0177,1.0178,1.0198,1.0199,1.0214,1.0211,1.0231,1.0235,1.0231,1.0246,1.024,1.0257,1.0253,1.0285,1.0279,1.0282,1.028,1.0303,1.03,1.0379,1.0388,1.0319,1.032,1.032,0,1.0189,1.0208,1.0211,1.0221,1.0224,1.0239,1.0248,1.0238,1.0248,1.0256,1.0269,1.0284,1.0295,1.032,1.0319,1.0331,1.0325,1.0352,1.0327,1.0328,1.0324,1.0322,1.0323,1.0356,1.0357,1.0358,1.0358,0,1.0254,1.025,1.0263,1.0274,1.0285,1.0294,1.0301,1.0309,1.0301,1.0312,1.0327,1.0336,1.0353,1.0367,1.0378,1.038,1.0367,1.0366,1.0372,1.0374,1.0374,1.0373,1.0294,1.0364,1.0364,1.0363,1.0363,1.0363,1.0301,1.0316,1.032,1.0335,1.0339,1.0346,1.036,1.0359,1.0372,1.0384,1.0378,1.0396,1.0401,1.0414,1.0418,1.0432,1.0421,1.043,1.0432,1.0433,1.0436,1.0374,1.0434,1.0434,1.0434,1.0433,1.0433,0,1.0363,1.0365,1.0378,1.0389,1.04,1.0387,1.0395,1.0405,1.0421,1.0426,1.0437,1.0455,1.0468,1.0467,1.0479,1.049,1.0485,1.0494,1.0492,1.0492,1.0445,1.0438,1.0498,1.0498,1.0498,1.0498,1.0498,1.0498,1.0397,1.0421,1.0418,1.0444,1.0446,1.0463,1.0468,1.0474,1.0478,1.0498,1.0509,1.0509,1.0512,1.0524,1.0535,1.0535,1.0539,1.055,1.0547,1.0503,1.0496,1.049,1.0483,1.0551,1.0551,1.0593,1.0594,1.0594]}]]